(100565) = 2002 RG217 = 1997 GC29

Discovered at Kitt Peak on 1997-04-09 by Spacewatch.

Orbit

Orbit type: Main Belt

Note: WebGL enabled browser required.

epoch2023-09-13.0
epoch JD2460200.5
perihelion date2022-07-01.45852
perihelion JD2459761.95852
argument of perihelion (°)287.62136
ascending node (°)339.26040
inclination (°)0.35211
eccentricity0.1694901
perihelion distance (AU)2.1252569
Tisserand w.r.t. Jupiter3.4
ΔV w.r.t. Earth (km/sec)9.1
semimajor axis (AU)2.5589783
mean anomaly (°)105.58801
mean daily motion (°/day)0.24077090
aphelion distance (AU)2.993
period (years)4.09
P-vector [x]-0.05439021
P-vector [y]-0.91377838
P-vector [z]-0.40255532
Q-vector [x]0.99851739
Q-vector [y]-0.05065282
Q-vector [z]-0.01993297
absolute magnitude16.58
phase slope0.15
uncertainty0
referenceMPO 777352
observations used329
oppositions19
arc length (days)11159
first opposition used1993
last opposition used2023
residual rms (arc-secs)0.68
perturbers coarse indicatorM-v
perturbers precise indicator003Ek
first observation date used1993-04-16.0
last observation date used2023-11-04.0
computer nameMPCLINUX
JD of orbit computation2456937.240489
perihelion JD uncertainty (days)5.1898E-05
argument of perihelion uncertainty (°)5.2045E-04
ascending node uncertainty (°)5.2026E-04
inclination uncertainty (°)4.4025E-06
eccentricity uncertainty 3.3902E-08
perihelion distance uncertainty (AU)8.5202E-08
Minimum Orbit Intersection Distances (in AU)
for orbit epoch: 2460200.5, reference: E2023-VN0
Mercury1.66083
Venus1.39846
Earth1.10864
Mars0.63149
Jupiter2.08549
Saturn6.06119
Uranus15.7284
Neptune26.9642

Observations

341 total observations over interval: 1993 04 16.57641 – 2023 11 04.359232
These data are available for download (format description).

Date (UT) J2000 RA J2000 Dec Magn Location Ref
1993 04 16.57641 12 57 37.56 -06 35 27.2 19.8   413 – Siding Spring Observatory MPS 103782
1994 09 12.39249 00 21 57.56 +02 34 46.9 19.7 V 691 – Steward Observatory, Kitt Peak-Spacewatch MPS 103782
1994 09 12.41490 00 21 56.44 +02 34 40.1   691 – Steward Observatory, Kitt Peak-Spacewatch MPS 103782
1994 09 12.43655 00 21 55.30 +02 34 34.1   691 – Steward Observatory, Kitt Peak-Spacewatch MPS 103782
1997 04 08.23679 12 05 11.64 -00 52 14.1 20.8 V 691 – Steward Observatory, Kitt Peak-Spacewatch MPS 79477
1997 04 08.25784 12 05 10.60 -00 52 07.6 20.2 V 691 – Steward Observatory, Kitt Peak-Spacewatch MPS 79477
1997 04 08.27888 12 05 09.48 -00 52 01.1 20.6 V 691 – Steward Observatory, Kitt Peak-Spacewatch MPS 79477
1997 04 09.26409 12 04 21.60 -00 46 55.9 20.0 V 691 – Steward Observatory, Kitt Peak-Spacewatch MPC 29486
1997 04 09.27381 12 04 21.13 -00 46 53.6 19.8 V 691 – Steward Observatory, Kitt Peak-Spacewatch MPC 29486
1997 04 09.28727 12 04 20.45 -00 46 49.1 19.6 V 691 – Steward Observatory, Kitt Peak-Spacewatch MPC 29486
1997 04 15.19333 11 59 53.81 -00 18 35.6 20.4 V 691 – Steward Observatory, Kitt Peak-Spacewatch MPC 29486
1997 04 15.21522 11 59 52.85 -00 18 30.4 20.0 V 691 – Steward Observatory, Kitt Peak-Spacewatch MPC 29486
1997 04 15.23679 11 59 51.88 -00 18 24.7 20.4 V 691 – Steward Observatory, Kitt Peak-Spacewatch MPC 29486
2001 04 13.16415 11 09 31.48 +05 12 11.1 20.7 V 691 – Steward Observatory, Kitt Peak-Spacewatch MPS 103782
2001 04 13.19625 11 09 30.50 +05 12 16.9 20.5 V 691 – Steward Observatory, Kitt Peak-Spacewatch MPS 103782
2001 04 13.22818 11 09 29.50 +05 12 22.5 21.2 V 691 – Steward Observatory, Kitt Peak-Spacewatch MPS 103782
2001 04 16.124520 11 08 11.231 +05 20 17.49 20.60 V 645 – Apache Point-Sloan Digital Sky Survey MPS 103782
2001 04 16.127992 11 08 11.138 +05 20 18.04 21.50   645 – Apache Point-Sloan Digital Sky Survey MPS 103782
2001 04 26.15952 11 05 24.95 +05 36 50.9 21.0 V 691 – Steward Observatory, Kitt Peak-Spacewatch MPS 103782
2001 04 26.18113 11 05 24.76 +05 36 51.7 21.1 V 691 – Steward Observatory, Kitt Peak-Spacewatch MPS 103782
2001 04 26.20279 11 05 24.54 +05 36 52.6 21.1 V 691 – Steward Observatory, Kitt Peak-Spacewatch MPS 103782
2002 08 16.34742 22 56 24.04 -06 50 49.0 20.3 V 291 – LPL/Spacewatch II MPS 77757
2002 08 16.36802 22 56 23.05 -06 50 54.7 20.0 V 291 – LPL/Spacewatch II MPS 77757
2002 08 16.39160 22 56 21.90 -06 51 01.0 20.2 V 291 – LPL/Spacewatch II MPS 77757
2002 09 05.22588 22 39 22.32 -08 30 19.5 19.9   704 – Lincoln Laboratory ETS, New Mexico MPS 77757
2002 09 05.24003 22 39 21.56 -08 30 23.7 19.6   704 – Lincoln Laboratory ETS, New Mexico MPS 77757
2002 09 05.25415 22 39 20.79 -08 30 27.8 19.6   704 – Lincoln Laboratory ETS, New Mexico MPS 77757
2002 09 05.26828 22 39 20.01 -08 30 31.5 19.3   704 – Lincoln Laboratory ETS, New Mexico MPS 77757
2002 09 14.25413 22 31 53.79 -09 12 53.1 19.7   644 – Palomar Mountain/NEAT MPS 63634
2002 09 14.27537 22 31 52.73 -09 12 58.8 19.3   644 – Palomar Mountain/NEAT MPS 63634
2002 09 14.29620 22 31 51.73 -09 13 04.4 19.4   644 – Palomar Mountain/NEAT MPS 63634
2002 09 16.13045 22 30 29.35 -09 20 49.0 20.3   644 – Palomar Mountain/NEAT MPS 63634
2002 09 16.20394 22 30 25.96 -09 21 07.2 19.7   644 – Palomar Mountain/NEAT MPS 63634
2002 09 16.26906 22 30 22.96 -09 21 23.2 19.3   644 – Palomar Mountain/NEAT MPS 63634
2005 03 03.29810 10 54 59.34 +06 53 49.1 18.6 R 703 – Catalina Sky Survey MPS 127068
2005 03 03.30613 10 54 58.93 +06 53 51.0 18.6 R 703 – Catalina Sky Survey MPS 127068
2005 03 03.31421 10 54 58.53 +06 53 53.9 19.4 R 703 – Catalina Sky Survey MPS 127068
2005 03 03.32230 10 54 58.00 +06 53 57.1 19.4 R 703 – Catalina Sky Survey MPS 127068
2005 03 04.32229 10 54 02.58 +06 59 27.4 18.7 R G96 – Mt. Lemmon Survey MPS 127068
2005 03 04.32760 10 54 02.31 +06 59 29.4 19.4 R G96 – Mt. Lemmon Survey MPS 127068
2005 03 04.33291 10 54 02.00 +06 59 31.4 19.5 R G96 – Mt. Lemmon Survey MPS 127068
2005 03 04.33821 10 54 01.69 +06 59 33.2 19.3 R G96 – Mt. Lemmon Survey MPS 127068
2005 03 08.30526 10 50 21.88 +07 21 22.7 19.1 R G96 – Mt. Lemmon Survey MPS 127702
2005 03 08.31242 10 50 21.46 +07 21 24.8 19.0 R G96 – Mt. Lemmon Survey MPS 127702
2005 03 08.31954 10 50 21.04 +07 21 27.4 19.2 R G96 – Mt. Lemmon Survey MPS 127702
2005 03 08.32664 10 50 20.65 +07 21 29.3 19.4 R G96 – Mt. Lemmon Survey MPS 127702
2005 03 09.17801 10 49 33.99 +07 26 07.8 19.5 R 699 – Lowell Observatory-LONEOS MPS 127702
2005 03 09.19746 10 49 32.87 +07 26 14.2   699 – Lowell Observatory-LONEOS MPS 127702
2005 03 09.21689 10 49 31.86 +07 26 22.0   699 – Lowell Observatory-LONEOS MPS 127702
2005 03 09.23634 10 49 30.76 +07 26 28.0   699 – Lowell Observatory-LONEOS MPS 127702
2005 04 02.12660 10 31 15.71 +09 12 16.7 20.2 V 691 – Steward Observatory, Kitt Peak-Spacewatch MPS 130128
2005 04 02.14247 10 31 15.19 +09 12 19.8 20.0 V 691 – Steward Observatory, Kitt Peak-Spacewatch MPS 130128
2005 04 02.15836 10 31 14.63 +09 12 22.5 20.4 V 691 – Steward Observatory, Kitt Peak-Spacewatch MPS 130128
2005 05 04.15056 10 28 05.78 +09 27 35.3 20.4 R G96 – Mt. Lemmon Survey MPS 133194
2005 05 04.15855 10 28 05.95 +09 27 34.5 20.6 R G96 – Mt. Lemmon Survey MPS 133194
2005 05 04.16656 10 28 06.08 +09 27 33.6 20.4 R G96 – Mt. Lemmon Survey MPS 133194
2005 05 04.17453 10 28 06.21 +09 27 32.9 20.8 R G96 – Mt. Lemmon Survey MPS 133194
2005 05 13.17001 10 32 02.73 +09 03 51.6 20.6 R G96 – Mt. Lemmon Survey MPS 134686
2005 05 13.17933 10 32 02.92 +09 03 49.0 19.0 R G96 – Mt. Lemmon Survey MPS 134686
2005 05 13.18866 10 32 03.34 +09 03 48.1 20.9 R G96 – Mt. Lemmon Survey MPS 134686
2005 05 13.19796 10 32 03.59 +09 03 46.6 20.7 R G96 – Mt. Lemmon Survey MPS 134686
2006 08 13.35266 21 55 47.20 -12 48 12.9 18.6 R 644 – Palomar Mountain/NEAT MPS 175874
2006 08 13.37490 21 55 45.96 -12 48 18.8 19.0 R 644 – Palomar Mountain/NEAT MPS 175874
2006 08 13.39601 21 55 44.79 -12 48 24.4 19.0 R 644 – Palomar Mountain/NEAT MPS 175874
2006 08 16.29803 21 53 09.22 -13 01 31.0 18.9 R 644 – Palomar Mountain/NEAT MPS 178048
2006 08 16.31844 21 53 08.09 -13 01 36.4 18.5 R 644 – Palomar Mountain/NEAT MPS 178048
2006 08 16.33887 21 53 06.95 -13 01 42.0 18.8 R 644 – Palomar Mountain/NEAT MPS 178048
2006 08 27.18716 21 43 34.32 -13 48 41.9 19.6 V 691 – Steward Observatory, Kitt Peak-Spacewatch MPS 178048
2006 08 27.19709 21 43 33.80 -13 48 44.5 19.6 V 691 – Steward Observatory, Kitt Peak-Spacewatch MPS 178048
2006 08 27.20701 21 43 33.28 -13 48 46.7 19.6 V 691 – Steward Observatory, Kitt Peak-Spacewatch MPS 178048
2006 08 29.19228 21 41 55.35 -13 56 37.0 19.2   704 – Lincoln Laboratory ETS, New Mexico MPS 178048
2006 08 29.20353 21 41 54.78 -13 56 39.1 19.7   704 – Lincoln Laboratory ETS, New Mexico MPS 178048
2006 08 29.22593 21 41 53.65 -13 56 44.3 19.3   704 – Lincoln Laboratory ETS, New Mexico MPS 178048
2006 08 29.23715 21 41 53.06 -13 56 46.8 19.5   704 – Lincoln Laboratory ETS, New Mexico MPS 178048
2006 09 25.21065 21 28 09.26 -14 58 37.2 20.3 V G96 – Mt. Lemmon Survey MPS 182253
2006 09 25.21728 21 28 09.19 -14 58 37.2 20.4 V G96 – Mt. Lemmon Survey MPS 182253
2006 09 25.22392 21 28 09.12 -14 58 37.5 20.3 V G96 – Mt. Lemmon Survey MPS 182253
2006 09 25.23056 21 28 09.04 -14 58 37.6 20.1 V G96 – Mt. Lemmon Survey MPS 182253
2006 10 22.14895 21 34 18.87 -14 24 28.3 21.3 V G96 – Mt. Lemmon Survey MPS 185069
2006 10 22.15447 21 34 19.05 -14 24 27.1 21.4 V G96 – Mt. Lemmon Survey MPS 185069
2006 10 22.16000 21 34 19.23 -14 24 26.1 21.3 V G96 – Mt. Lemmon Survey MPS 185069
2006 10 22.16557 21 34 19.45 -14 24 25.0 20.9 V G96 – Mt. Lemmon Survey MPS 185069
2006 10 28.15442 21 38 09.31 -14 04 43.7 21.4 V G96 – Mt. Lemmon Survey MPS 186395
2006 10 28.16428 21 38 09.63 -14 04 42.3 22.1 V G96 – Mt. Lemmon Survey MPS 186395
2006 10 28.17458 21 38 10.10 -14 04 40.1 21.3 V G96 – Mt. Lemmon Survey MPS 186395
2006 10 28.18451 21 38 10.60 -14 04 36.4 21.6 V G96 – Mt. Lemmon Survey MPS 186395
2007 11 05.35728 04 56 29.93 +23 08 59.3 20.7 V 691 – Steward Observatory, Kitt Peak-Spacewatch MPS 226277
2007 11 05.37498 04 56 29.13 +23 08 58.6 21.3 V 691 – Steward Observatory, Kitt Peak-Spacewatch MPS 226277
